Time,TemperatureF,DewpointF,PressureIn,WindDirection,WindDirectionDegrees,WindSpeedMPH,WindSpeedGustMPH,Humidity,HourlyPrecipIn,Conditions,Clouds,dailyrainin,SolarRadiationWatts/m^2,SoftwareType,DateUTC
2013-04-18 00:22:00,60.0,3.0,-100.00,ENE,74,9.0,15.0,10,0.00,,,0.00,627.000000,,2013-04-18 00:22:00,
2013-04-18 00:32:00,60.0,3.0,-100.00,ENE,74,9.0,15.0,10,0.00,,,0.00,627.000000,,2013-04-18 00:32:00,
2013-04-18 00:42:00,60.0,3.0,-100.00,ENE,74,9.0,15.0,10,0.00,,,0.00,627.000000,,2013-04-18 00:42:00,
2013-04-18 00:50:00,60.0,5.0,-100.00,ENE,68,10.0,17.0,11,0.00,,,0.00,405.000000,,2013-04-18 00:50:00,
2013-04-18 01:12:00,60.0,5.0,-100.00,ENE,68,10.0,17.0,11,0.00,,,0.00,405.000000,,2013-04-18 01:12:00,
2013-04-18 01:22:00,60.0,5.0,-100.00,ENE,68,10.0,17.0,11,0.00,,,0.00,405.000000,,2013-04-18 01:22:00,
2013-04-18 01:32:00,60.0,5.0,-100.00,ENE,68,10.0,17.0,11,0.00,,,0.00,405.000000,,2013-04-18 01:32:00,
2013-04-18 01:42:00,60.0,5.0,-100.00,ENE,68,10.0,17.0,11,0.00,,,0.00,405.000000,,2013-04-18 01:42:00,
2013-04-18 01:50:00,57.0,3.0,-100.00,NE,45,6.0,15.0,11,0.00,,,0.00,177.000000,,2013-04-18 01:50:00,
2013-04-18 02:22:00,57.0,3.0,-100.00,NE,45,6.0,15.0,11,0.00,,,0.00,177.000000,,2013-04-18 02:22:00,
2013-04-18 02:32:00,57.0,3.0,-100.00,NE,45,6.0,15.0,11,0.00,,,0.00,177.000000,,2013-04-18 02:32:00,
2013-04-18 02:42:00,57.0,3.0,-100.00,NE,45,6.0,15.0,11,0.00,,,0.00,177.000000,,2013-04-18 02:42:00,
2013-04-18 02:50:00,48.0,7.0,-100.00,South,190,2.0,8.0,18,0.00,,,0.00,12.000000,,2013-04-18 02:50:00,
2013-04-18 03:43:00,48.0,7.0,-100.00,South,190,2.0,8.0,18,0.00,,,0.00,12.000000,,2013-04-18 03:43:00,
2013-04-18 03:50:00,41.0,8.0,-100.00,WSW,256,4.0,7.0,25,0.00,,,0.00,0.000000,,2013-04-18 03:50:00,
2013-04-18 04:50:00,40.0,6.0,-100.00,WSW,251,5.0,6.0,24,0.00,,,0.00,0.000000,,2013-04-18 04:50:00,
2013-04-18 05:12:00,40.0,6.0,-100.00,WSW,251,5.0,6.0,24,0.00,,,0.00,0.000000,,2013-04-18 05:12:00,
2013-04-18 05:22:00,40.0,6.0,-100.00,WSW,251,5.0,6.0,24,0.00,,,0.00,0.000000,,2013-04-18 05:22:00,
2013-04-18 05:32:00,40.0,6.0,-100.00,WSW,251,5.0,6.0,24,0.00,,,0.00,0.000000,,2013-04-18 05:32:00,
2013-04-18 05:42:00,40.0,6.0,-100.00,WSW,251,5.0,6.0,24,0.00,,,0.00,0.000000,,2013-04-18 05:42:00,
2013-04-18 06:42:00,35.0,7.0,-100.00,WSW,251,4.0,6.0,30,0.00,,,0.00,0.000000,,2013-04-18 06:42:00,
2013-04-18 06:50:00,35.0,9.0,-100.00,West,262,5.0,8.0,33,-99.99,,,0.00,0.000000,,2013-04-18 06:50:00,
2013-04-18 07:12:00,35.0,9.0,-100.00,West,262,5.0,8.0,33,-99.99,,,0.00,0.000000,,2013-04-18 07:12:00,
2013-04-18 07:22:00,35.0,9.0,-100.00,West,262,5.0,8.0,33,-99.99,,,0.00,0.000000,,2013-04-18 07:22:00,
2013-04-18 07:32:00,35.0,9.0,-100.00,West,262,5.0,8.0,33,-99.99,,,0.00,0.000000,,2013-04-18 07:32:00,
2013-04-18 07:42:00,35.0,9.0,-100.00,West,262,5.0,8.0,33,-99.99,,,0.00,0.000000,,2013-04-18 07:42:00,
2013-04-18 08:12:00,33.0,8.0,-100.00,WSW,250,4.0,7.0,34,0.00,,,0.00,0.000000,,2013-04-18 08:12:00,
2013-04-18 08:42:00,33.0,8.0,-100.00,WSW,250,4.0,7.0,34,0.00,,,0.00,0.000000,,2013-04-18 08:42:00,
2013-04-18 09:12:00,33.0,7.0,-100.00,West,259,5.0,8.0,33,-99.99,,,0.00,0.000000,,2013-04-18 09:12:00,
2013-04-18 09:22:00,33.0,7.0,-100.00,West,259,5.0,8.0,33,-99.99,,,0.00,0.000000,,2013-04-18 09:22:00,
2013-04-18 09:32:00,33.0,7.0,-100.00,West,259,5.0,8.0,33,-99.99,,,0.00,0.000000,,2013-04-18 09:32:00,
2013-04-18 09:42:00,33.0,7.0,-100.00,West,259,5.0,8.0,33,-99.99,,,0.00,0.000000,,2013-04-18 09:42:00,
2013-04-18 09:50:00,39.0,5.0,-100.00,West,263,3.0,7.0,24,-99.99,,,0.00,0.000000,,2013-04-18 09:50:00,
2013-04-18 10:12:00,39.0,5.0,-100.00,West,263,3.0,7.0,24,-99.99,,,0.00,0.000000,,2013-04-18 10:12:00,
2013-04-18 10:23:00,39.0,5.0,-100.00,West,263,3.0,7.0,24,-99.99,,,0.00,0.000000,,2013-04-18 10:23:00,
2013-04-18 10:32:00,39.0,5.0,-100.00,West,263,3.0,7.0,24,-99.99,,,0.00,0.000000,,2013-04-18 10:32:00,
2013-04-18 10:42:00,39.0,5.0,-100.00,West,263,3.0,7.0,24,-99.99,,,0.00,0.000000,,2013-04-18 10:42:00,
2013-04-18 10:50:00,50.0,3.0,-100.00,NE,38,11.0,18.0,14,0.00,,,0.00,0.000000,,2013-04-18 10:50:00,
2013-04-18 11:12:00,50.0,3.0,-100.00,NE,38,11.0,18.0,14,0.00,,,0.00,0.000000,,2013-04-18 11:12:00,
2013-04-18 11:42:00,50.0,3.0,-100.00,NE,38,11.0,18.0,14,0.00,,,0.00,0.000000,,2013-04-18 11:42:00,
2013-04-18 11:50:00,49.0,6.0,-100.00,NNE,30,14.0,23.0,17,0.00,,,0.00,0.000000,,2013-04-18 11:50:00,
2013-04-18 12:12:00,49.0,6.0,-100.00,NNE,30,14.0,23.0,17,0.00,,,0.00,0.000000,,2013-04-18 12:12:00,
2013-04-18 12:22:00,49.0,6.0,-100.00,NNE,30,14.0,23.0,17,0.00,,,0.00,0.000000,,2013-04-18 12:22:00,
2013-04-18 12:32:00,49.0,6.0,-100.00,NNE,30,14.0,23.0,17,0.00,,,0.00,0.000000,,2013-04-18 12:32:00,
2013-04-18 12:42:00,49.0,6.0,-100.00,NNE,30,14.0,23.0,17,0.00,,,0.00,0.000000,,2013-04-18 12:42:00,
2013-04-18 13:22:00,48.0,9.0,-100.00,NNE,30,12.0,24.0,20,0.00,,,0.00,0.000000,,2013-04-18 13:22:00,
2013-04-18 13:32:00,48.0,9.0,-100.00,NNE,30,12.0,24.0,20,0.00,,,0.00,0.000000,,2013-04-18 13:32:00,
2013-04-18 13:42:00,48.0,9.0,-100.00,NNE,30,12.0,24.0,20,0.00,,,0.00,0.000000,,2013-04-18 13:42:00,
2013-04-18 13:50:00,49.0,11.0,-100.00,NE,41,13.0,21.0,21,0.00,,,0.00,25.000000,,2013-04-18 13:50:00,
2013-04-18 14:22:00,49.0,11.0,-100.00,NE,41,13.0,21.0,21,0.00,,,0.00,25.000000,,2013-04-18 14:22:00,
2013-04-18 14:32:00,49.0,11.0,-100.00,NE,41,13.0,21.0,21,0.00,,,0.00,25.000000,,2013-04-18 14:32:00,
2013-04-18 14:42:00,49.0,11.0,-100.00,NE,41,13.0,21.0,21,0.00,,,0.00,25.000000,,2013-04-18 14:42:00,
2013-04-18 14:50:00,51.0,12.0,-100.00,NE,35,15.0,26.0,21,0.00,,,0.00,209.000000,,2013-04-18 14:50:00,
2013-04-18 15:22:00,51.0,12.0,-100.00,NE,35,15.0,26.0,21,0.00,,,0.00,209.000000,,2013-04-18 15:22:00,
2013-04-18 15:33:00,51.0,12.0,-100.00,NE,35,15.0,26.0,21,0.00,,,0.00,209.000000,,2013-04-18 15:33:00,
2013-04-18 15:42:00,51.0,12.0,-100.00,NE,35,15.0,26.0,21,0.00,,,0.00,209.000000,,2013-04-18 15:42:00,
2013-04-18 15:50:00,53.0,14.0,-100.00,NNE,30,16.0,26.0,21,0.00,,,0.00,438.000000,,2013-04-18 15:50:00,
2013-04-18 16:22:00,53.0,14.0,-100.00,NNE,30,16.0,26.0,21,0.00,,,0.00,438.000000,,2013-04-18 16:22:00,
2013-04-18 16:33:00,53.0,14.0,-100.00,NNE,30,16.0,26.0,21,0.00,,,0.00,438.000000,,2013-04-18 16:33:00,
2013-04-18 16:42:00,53.0,14.0,-100.00,NNE,30,16.0,26.0,21,0.00,,,0.00,438.000000,,2013-04-18 16:42:00,
2013-04-18 16:50:00,54.0,15.0,-100.00,NE,35,18.0,27.0,21,0.00,,,0.00,658.000000,,2013-04-18 16:50:00,
2013-04-18 17:12:00,54.0,15.0,-100.00,NE,35,18.0,27.0,21,0.00,,,0.00,658.000000,,2013-04-18 17:12:00,
2013-04-18 17:22:00,54.0,15.0,-100.00,NE,35,18.0,27.0,21,0.00,,,0.00,658.000000,,2013-04-18 17:22:00,
2013-04-18 17:33:00,54.0,15.0,-100.00,NE,35,18.0,27.0,21,0.00,,,0.00,658.000000,,2013-04-18 17:33:00,
2013-04-18 17:42:00,54.0,15.0,-100.00,NE,35,18.0,27.0,21,0.00,,,0.00,658.000000,,2013-04-18 17:42:00,
2013-04-18 17:50:00,55.0,14.0,-100.00,NNE,33,18.0,35.0,19,0.00,,,0.00,842.000000,,2013-04-18 17:50:00,
2013-04-18 18:22:00,55.0,14.0,-100.00,NNE,33,18.0,35.0,19,0.00,,,0.00,842.000000,,2013-04-18 18:22:00,
2013-04-18 18:32:00,55.0,14.0,-100.00,NNE,33,18.0,35.0,19,0.00,,,0.00,842.000000,,2013-04-18 18:32:00,
2013-04-18 18:42:00,55.0,14.0,-100.00,NNE,33,18.0,35.0,19,0.00,,,0.00,842.000000,,2013-04-18 18:42:00,
2013-04-18 18:50:00,56.0,10.0,-100.00,NNE,28,18.0,30.0,16,0.00,,,-99.99,968.000000,,2013-04-18 18:50:00,
2013-04-18 19:22:00,56.0,10.0,-100.00,NNE,28,18.0,30.0,16,0.00,,,-99.99,968.000000,,2013-04-18 19:22:00,
2013-04-18 19:32:00,56.0,10.0,-100.00,NNE,28,18.0,30.0,16,0.00,,,-99.99,968.000000,,2013-04-18 19:32:00,
2013-04-18 19:42:00,56.0,10.0,-100.00,NNE,28,18.0,30.0,16,0.00,,,-99.99,968.000000,,2013-04-18 19:42:00,
2013-04-18 19:50:00,58.0,11.0,-100.00,NNE,24,17.0,29.0,15,0.00,,,0.00,1028.000000,,2013-04-18 19:50:00,
2013-04-18 20:12:00,58.0,11.0,-100.00,NNE,24,17.0,29.0,15,0.00,,,0.00,1028.000000,,2013-04-18 20:12:00,
2013-04-18 20:22:00,58.0,11.0,-100.00,NNE,24,17.0,29.0,15,0.00,,,0.00,1028.000000,,2013-04-18 20:22:00,
2013-04-18 20:32:00,58.0,11.0,-100.00,NNE,24,17.0,29.0,15,0.00,,,0.00,1028.000000,,2013-04-18 20:32:00,
2013-04-18 20:42:00,58.0,11.0,-100.00,NNE,24,17.0,29.0,15,0.00,,,0.00,1028.000000,,2013-04-18 20:42:00,
2013-04-18 20:50:00,59.0,8.0,-100.00,NNE,23,16.0,27.0,13,0.00,,,0.00,1024.000000,,2013-04-18 20:50:00,
2013-04-18 21:22:00,59.0,8.0,-100.00,NNE,23,16.0,27.0,13,0.00,,,0.00,1024.000000,,2013-04-18 21:22:00,
2013-04-18 21:32:00,59.0,8.0,-100.00,NNE,23,16.0,27.0,13,0.00,,,0.00,1024.000000,,2013-04-18 21:32:00,
2013-04-18 21:43:00,59.0,8.0,-100.00,NNE,23,16.0,27.0,13,0.00,,,0.00,1024.000000,,2013-04-18 21:43:00,
2013-04-18 21:50:00,60.0,7.0,-100.00,NNE,24,13.0,26.0,12,0.00,,,0.00,954.000000,,2013-04-18 21:50:00,
2013-04-18 22:22:00,60.0,7.0,-100.00,NNE,24,13.0,26.0,12,0.00,,,0.00,954.000000,,2013-04-18 22:22:00,
2013-04-18 22:32:00,60.0,7.0,-100.00,NNE,24,13.0,26.0,12,0.00,,,0.00,954.000000,,2013-04-18 22:32:00,
2013-04-18 22:42:00,60.0,7.0,-100.00,NNE,24,13.0,26.0,12,0.00,,,0.00,954.000000,,2013-04-18 22:42:00,
2013-04-18 22:50:00,60.0,5.0,-100.00,NNE,26,12.0,27.0,11,0.00,,,0.00,820.000000,,2013-04-18 22:50:00,
2013-04-18 23:21:00,60.0,5.0,-100.00,NNE,26,12.0,27.0,11,0.00,,,0.00,820.000000,,2013-04-18 23:21:00,
2013-04-18 23:32:00,60.0,5.0,-100.00,NNE,26,12.0,27.0,11,0.00,,,0.00,820.000000,,2013-04-18 23:32:00,
2013-04-18 23:42:00,60.0,5.0,-100.00,NNE,26,12.0,27.0,11,0.00,,,0.00,820.000000,,2013-04-18 23:42:00,
2013-04-18 23:50:00,61.0,4.0,-100.00,NNE,29,11.0,21.0,10,0.00,,,0.00,629.000000,,2013-04-18 23:50:00,